Location: Allen Fire Department Station 4
(33.1073°N, 96.6988°W)
Time: 07:12:53
(UTC+00:00)

Cosmos 1763 Rocket - Pass Details

Date: 28 June 2022
Orbit: 732 x 780 km, 74.0° (Epoch: 17 August)

Event Time Altitude Azimuth Distance (km) Brightness Sun altitude
Exits shadow 07:01:02 12° 81° (E) 2,177 6.0 -33.1°
Drops below altitude 10° 07:01:55 10° 71° (ENE) 2,287 6.2 -33.1°
Sets 07:05:47 0° 43° (NE) 3,230 7.5 -33.0°
